Regional Weather Roundup
Issued by NWS

Home | Current Version | Previous Version | Graphics & Text | Print | Product List | Glossary On
Versions: 1 2 3 4 5 6 7 8 9 10 11 12 13 14 15 16 17 18 19 20 21 22 23 24 25 26 27 28 29 30 31 32 33 34 35 36 37 38 39 40 41 42 43 44 45 46 47 48 49 50
000
ASUS43 KLMK 191702
RWRKY
KENTUCKY REGIONAL WEATHER ROUNDUP
NATIONAL WEATHER SERVICE LOUISVILLE KY
100 PM EDT FRI SEP 19 2014

NOTE "FAIR" INDICATES FEW OR NO CLOUDS BELOW 12,000 FEET
WITH NO SIGNIFICANT WEATHER AND/OR OBSTRUCTIONS TO VISIBILITY.

KYZ001>023-026-027-061>063-070>075-191800-
WESTERN AND SOUTH CENTRAL KENTUCKY

CITY           SKY/WX    TMP DP  RH WIND       PRES   REMARKS
PADUCAH        SUNNY     81  59  47 NE6       30.08F
HENDERSON      SUNNY     75  54  46 NE8       30.10F
OWENSBORO      SUNNY     76  56  49 E8        30.11F
HOPKINSVILLE   MOSUNNY   78  60  53 VRB7      30.08S
BOWLING GREEN  SUNNY     78  58  49 E6        30.09F
GLASGOW        SUNNY     76  58  53 SE6       30.10F
$$

KYZ024-025-028>034-038-045-046-053-191800-
NORTH CENTRAL KENTUCKY

CITY           SKY/WX    TMP DP  RH WIND       PRES   REMARKS
LOUISVILLE/SDF MOSUNNY   75  51  43 E9        30.13F
LOUISVILLE/LOU SUNNY     73  51  46 E9G17     30.14F
FORT KNOX      SUNNY     72  56  57 NE9       30.12F
$$

KYZ035>037-039>044-047>052-055>060-089>105-191800-
NORTHEAST KENTUCKY

CITY           SKY/WX    TMP DP  RH WIND       PRES   REMARKS
LEXINGTON      SUNNY     74  53  48 NE10      30.16S
COVINGTON      SUNNY     71  47  42 E12G18    30.17F
FRANKFORT      SUNNY     72  52  49 E8        30.15S
$$

KYZ054-064>069-076>088-106>120-191800-
SOUTHEAST KENTUCKY

CITY           SKY/WX    TMP DP  RH WIND       PRES   REMARKS
JACKSON        SUNNY     72  58  61 CALM      30.15F
LONDON         SUNNY     75  59  57 NE5       30.13F
SOMERSET       SUNNY     73  55  53 E6        30.13F
MIDDLESBORO    SUNNY     76  62  63 CALM      30.13F
MONTICELLO     SUNNY     78  60  53 VRB5      30.13F
$$




USA.gov is the U.S. government's official web portal to all federal, state and local government web resources and services.